Content
SEND FEEDBACK

Daily
Averages
Monthly
Summary
United States of America

CHERRY CREEK, SOUTH DAKOTA


Home > North America > United States > South Dakota
Elevation: 2047 feet     Latitude: 44 32N     Longitude: 101 34W

WEATHER
 
SELECT A DAY
Number of Records: 162,099;   Date Range: 1/1/95 - 10/23/14
 
SHARE

PRINT THIS DATA

[ ← Previous Day ]
WEATHER ALMANAC - FEBRUARY 13, 2013
[ Next Day → ]
[ °C ]   °F
Weather ElementAverageHighLow
Temperature38 °F53.1 °F (12:55 pm)27 °F (5:55 am)
Dewpoint26.4 °F32 °F (6:55 pm)21 °F (5:55 am)
Humidity65.6 %82 % (6:55 pm)37 % (12:55 pm)
Barometer29.82 in29.94 in (11:55 pm)29.70 in (12:55 pm)
Wind Speed15.7 mph34.5 mph (12:55 pm)
Wind Gust42.6 mph (12:55 pm)
Weather ElementAverage
Visibility10 mi
Wind DirectionWNW (291.7 °)

Weather ElementTotal
Precipitation---
Heating Degree Days25 (Base 65)
Averaged from 23 records on February 13, 2013
WEATHER CONDITIONS BREAKOUT
WIND DIRECTION BREAKOUT
WEATHER BY HOUR - FEBRUARY 13, 2013
[ °C ]   °F
Local TimeTemperatureDewpointHumidityBarometerVisibilityWind DirectionWind SpeedGust SpeedPrecipitationEventsConditions
1:55 AM30.9 °F23.0 °F72 %29.88 in10.0 miWest (270°)9.2 mphClear
2:55 AM28.9 °F21.9 °F75 %29.86 in10.0 miWest (280°)8.1 mphClear
3:55 AM28.0 °F21.9 °F78 %29.83 in10.0 miWest (270°)8.1 mphClear
4:55 AM28.0 °F21.9 °F78 %29.83 in10.0 miWSW (250°)8.1 mphClear
5:55 AM27.0 °F21.0 °F78 %29.82 in10.0 miNNW (330°)5.8 mphClear
6:55 AM28.9 °F21.9 °F75 %29.80 in10.0 miNW (320°)4.6 mphScattered Clouds
7:55 AM32.0 °F23.0 °F69 %29.80 in10.0 miWest (270°)10.4 mphOvercast
8:55 AM35.1 °F25.0 °F67 %29.80 in10.0 miWSW (250°)16.1 mphOvercast
9:55 AM41.0 °F25.0 °F53 %29.77 in10.0 miWSW (250°)16.1 mphOvercast
10:55 AM48.9 °F27.0 °F43 %29.74 in10.0 miWest (260°)18.4 mph25.3 mphScattered Clouds
11:55 AM50.0 °F27.0 °F41 %29.72 in10.0 miWNW (300°)28.8 mph36.8 mphOvercast
12:55 PM53.1 °F27.0 °F37 %29.70 in10.0 miWNW (300°)34.5 mph42.6 mphMostly Cloudy
1:55 PM52.0 °F27.0 °F38 %29.71 in10.0 miNW (310°)28.8 mph36.8 mphMostly Cloudy
2:55 PM48.0 °F28.9 °F48 %29.73 in10.0 miNW (320°)18.4 mph28.8 mphScattered Clouds
3:55 PM46.9 °F28.9 °F50 %29.76 in10.0 miNW (310°)17.3 mphClear
4:55 PM44.1 °F30.0 °F58 %29.79 in10.0 miWNW (290°)17.3 mph26.5 mphClear
5:55 PM39.0 °F30.0 °F70 %29.84 in10.0 miWNW (300°)9.2 mphScattered Clouds
6:55 PM37.0 °F32.0 °F82 %29.86 in10.0 miNW (310°)15.0 mph0.00 inPartly Cloudy
7:55 PM37.0 °F30.9 °F79 %29.87 in10.0 miNW (310°)18.4 mphClear
8:55 PM36.0 °F30.0 °F79 %29.90 in10.0 miNW (310°)19.6 mphClear
9:55 PM35.1 °F30.0 °F82 %29.92 in10.0 miWNW (300°)13.8 mphMostly Cloudy
10:55 PM34.0 °F28.0 °F79 %29.91 in10.0 miWNW (300°)16.1 mphClear
11:55 PM33.1 °F27.0 °F78 %29.94 in10.0 miWNW (300°)19.6 mphClear
Hourly data recorded from KPHP, located miles away from Cherry Creek, South Dakota







STORIES FROM OUR PARTNERS